• In Belarus
  • List of Countries
  • For 7 days
  • Water Temperature
  • Satellite Maps
  • Weather Map
  • Weather Widgets
  • user-avatar
    Login

    Hourly Weather Santiago del Estero

    Today, 18 December, Monday

    Time Temperature Precipitation Wind Pressure Humidity
    00:00 +22°C° 0 mm 3 mps 747 mmHg 29%
    01:00 +22°C° 0 mm 3 mps 748 mmHg 30%
    02:00 +20°C° 0 mm 3 mps 748 mmHg 33%
    03:00 +20°C° 0 mm 2 mps 747 mmHg 34%
    04:00 +20°C° 0 mm 2 mps 747 mmHg 35%
    05:00 +19°C° 0 mm 2 mps 747 mmHg 36%
    06:00 +20°C° 0 mm 2 mps 747 mmHg 37%
    07:00 +21°C° 0 mm 3 mps 747 mmHg 37%
    08:00 +24°C° 0 mm 3 mps 747 mmHg 38%
    09:00 +24°C° 0 mm 3 mps 746 mmHg 39%
    10:00 +24°C° 0 mm 3 mps 746 mmHg 39%
    11:00 +25°C° 0 mm 3 mps 745 mmHg 39%
    12:00 +27°C° 0 mm 3 mps 745 mmHg 37%
    13:00 +28°C° 0 mm 3 mps 744 mmHg 34%
    14:00 +30°C° 0 mm 3 mps 743 mmHg 32%
    15:00 +32°C° 0 mm 4 mps 742 mmHg 34%
    16:00 +32°C° 0 mm 4 mps 741 mmHg 36%
    17:00 +32°C° 0 mm 4 mps 741 mmHg 38%
    18:00 +30°C° 0 mm 3 mps 741 mmHg 42%
    19:00 +29°C° 0 mm 3 mps 741 mmHg 47%
    20:00 +27°C° 0 mm 2 mps 742 mmHg 51%
    21:00 +27°C° 0 mm 2 mps 742 mmHg 53%
    22:00 +27°C° 0 mm 2 mps 742 mmHg 55%
    23:00 +27°C° 0 mm 2 mps 743 mmHg 57%

    Tomorrow, 19 December, Tuesday

    Time Temperature Precipitation Wind Pressure Humidity
    00:00 +27°C° 0 mm 2 mps 742 mmHg 58%
    01:00 +26°C° 0 mm 2 mps 742 mmHg 59%
    02:00 +26°C° 0 mm 2 mps 742 mmHg 61%
    03:00 +26°C° 0 mm 2 mps 741 mmHg 62%
    04:00 +25°C° 0 mm 1 mps 741 mmHg 63%
    05:00 +25°C° 0 mm 1 mps 741 mmHg 64%
    06:00 +26°C° 0 mm 1 mps 741 mmHg 60%
    07:00 +28°C° 0 mm 2 mps 742 mmHg 56%
    08:00 +30°C° 0 mm 2 mps 742 mmHg 51%
    09:00 +33°C° 0 mm 3 mps 742 mmHg 47%
    10:00 +35°C° 0 mm 4 mps 742 mmHg 42%
    11:00 +37°C° 0 mm 4 mps 742 mmHg 38%
    12:00 +39°C° 0 mm 5 mps 741 mmHg 36%
    13:00 +40°C° 0 mm 5 mps 740 mmHg 33%
    14:00 +41°C° 0 mm 5 mps 740 mmHg 31%
    15:00 +40°C° 0 mm 5 mps 739 mmHg 32%
    16:00 +40°C° 0 mm 4 mps 739 mmHg 34%
    17:00 +38°C° 0 mm 4 mps 738 mmHg 35%
    18:00 +36°C° 0.1 mm 4 mps 739 mmHg 40%
    19:00 +35°C° 0.1 mm 4 mps 739 mmHg 46%
    20:00 +33°C° 0.1 mm 4 mps 739 mmHg 51%
    21:00 +30°C° 1.2 mm 4 mps 740 mmHg 61%
    22:00 +28°C° 1.2 mm 4 mps 740 mmHg 71%
    23:00 +26°C° 1.2 mm 4 mps 741 mmHg 82%

    Day after tomorrow, 20 December, Wednesday

    Time Temperature Precipitation Wind Pressure Humidity
    00:00 +26°C° 1 mm 4 mps 740 mmHg 84%
    01:00 +25°C° 1 mm 4 mps 740 mmHg 86%
    02:00 +25°C° 1 mm 4 mps 740 mmHg 89%
    03:00 +24°C° 0.5 mm 3 mps 740 mmHg 90%
    04:00 +24°C° 0.5 mm 3 mps 740 mmHg 90%
    05:00 +22°C° 0.5 mm 3 mps 740 mmHg 91%
    06:00 +24°C° 0 mm 3 mps 740 mmHg 87%
    07:00 +25°C° 0 mm 2 mps 740 mmHg 82%
    08:00 +26°C° 0 mm 2 mps 740 mmHg 78%
    09:00 +28°C° 0 mm 2 mps 740 mmHg 70%
    10:00 +30°C° 0 mm 2 mps 740 mmHg 62%
    11:00 +34°C° 0 mm 2 mps 740 mmHg 54%
    12:00 +35°C° 0 mm 3 mps 739 mmHg 50%
    13:00 +36°C° 0 mm 3 mps 738 mmHg 46%
    14:00 +38°C° 0 mm 4 mps 737 mmHg 42%
    15:00 +38°C° 0 mm 4 mps 737 mmHg 42%
    16:00 +39°C° 0 mm 5 mps 736 mmHg 42%
    17:00 +39°C° 0 mm 5 mps 735 mmHg 42%
    18:00 +36°C° 0 mm 4 mps 736 mmHg 46%
    19:00 +35°C° 0 mm 4 mps 736 mmHg 49%
    20:00 +33°C° 0 mm 3 mps 736 mmHg 53%
    21:00 +31°C° 0 mm 3 mps 736 mmHg 56%
    22:00 +30°C° 0 mm 3 mps 737 mmHg 58%
    23:00 +30°C° 0 mm 3 mps 737 mmHg 60%

    21 December, Thursday

    Time Temperature Precipitation Wind Pressure Humidity
    00:00 +29°C° 0 mm 3 mps 737 mmHg 62%
    01:00 +28°C° 0 mm 3 mps 736 mmHg 65%
    02:00 +28°C° 0 mm 3 mps 736 mmHg 67%
    03:00 +28°C° 0 mm 3 mps 736 mmHg 69%
    04:00 +27°C° 0 mm 3 mps 736 mmHg 72%
    05:00 +27°C° 0 mm 3 mps 736 mmHg 74%
    06:00 +28°C° 0 mm 4 mps 737 mmHg 71%
    07:00 +30°C° 0 mm 4 mps 737 mmHg 68%
    08:00 +32°C° 0 mm 5 mps 738 mmHg 65%
    09:00 +34°C° 0.7 mm 4 mps 738 mmHg 60%
    10:00 +35°C° 0.7 mm 4 mps 738 mmHg 55%
    11:00 +37°C° 0.7 mm 4 mps 738 mmHg 49%
    12:00 +38°C° 0.1 mm 4 mps 737 mmHg 46%
    13:00 +38°C° 0.1 mm 3 mps 737 mmHg 43%
    14:00 +39°C° 0.1 mm 3 mps 736 mmHg 40%
    15:00 +39°C° 0 mm 3 mps 736 mmHg 40%
    16:00 +39°C° 0 mm 3 mps 736 mmHg 40%
    17:00 +40°C° 0 mm 4 mps 735 mmHg 40%
    18:00 +38°C° 0 mm 3 mps 736 mmHg 43%
    19:00 +36°C° 0 mm 3 mps 736 mmHg 47%
    20:00 +35°C° 0 mm 2 mps 736 mmHg 50%
    21:00 +34°C° 0.3 mm 3 mps 737 mmHg 55%
    22:00 +33°C° 0.3 mm 3 mps 737 mmHg 60%
    23:00 +31°C° 0.3 mm 3 mps 737 mmHg 65%

    22 December, Friday

    Time Temperature Precipitation Wind Pressure Humidity
    00:00 +30°C° 0 mm 3 mps 737 mmHg 69%
    01:00 +29°C° 0 mm 2 mps 736 mmHg 72%
    02:00 +29°C° 0 mm 2 mps 736 mmHg 76%
    03:00 +28°C° 0 mm 2 mps 736 mmHg 78%
    04:00 +28°C° 0 mm 2 mps 735 mmHg 79%
    05:00 +28°C° 0 mm 2 mps 735 mmHg 81%
    06:00 +29°C° 0 mm 2 mps 736 mmHg 74%
    07:00 +31°C° 0 mm 3 mps 736 mmHg 68%
    08:00 +33°C° 0 mm 3 mps 736 mmHg 61%
    09:00 +35°C° 0 mm 3 mps 736 mmHg 54%
    10:00 +37°C° 0 mm 3 mps 736 mmHg 47%
    11:00 +40°C° 0 mm 4 mps 735 mmHg 40%
    12:00 +39°C° 0 mm 3 mps 735 mmHg 39%
    13:00 +39°C° 0 mm 3 mps 734 mmHg 38%
    14:00 +40°C° 0 mm 3 mps 734 mmHg 37%
    15:00 +40°C° 0 mm 3 mps 734 mmHg 37%
    16:00 +40°C° 0 mm 3 mps 733 mmHg 36%
    17:00 +40°C° 0 mm 3 mps 733 mmHg 36%
    18:00 +38°C° 0 mm 3 mps 734 mmHg 40%
    19:00 +36°C° 0 mm 3 mps 734 mmHg 43%
    20:00 +35°C° 0 mm 3 mps 734 mmHg 47%
    21:00 +33°C° 1.4 mm 3 mps 735 mmHg 57%
    22:00 +30°C° 1.4 mm 3 mps 736 mmHg 67%
    23:00 +29°C° 1.4 mm 2 mps 736 mmHg 77%

    23 December, Saturday

    Time Temperature Precipitation Wind Pressure Humidity
    00:00 +28°C° 2.4 mm 4 mps 736 mmHg 81%
    01:00 +27°C° 2.4 mm 6 mps 737 mmHg 85%
    02:00 +26°C° 2.4 mm 8 mps 737 mmHg 89%
    03:00 +24°C° 2.4 mm 8 mps 738 mmHg 89%
    04:00 +24°C° 2.4 mm 7 mps 738 mmHg 90%
    05:00 +24°C° 2.4 mm 6 mps 739 mmHg 90%
    06:00 +23°C° 2.1 mm 6 mps 740 mmHg 90%
    07:00 +23°C° 2.1 mm 6 mps 741 mmHg 89%
    08:00 +23°C° 2.1 mm 6 mps 742 mmHg 89%
    09:00 +23°C° 0.2 mm 6 mps 742 mmHg 83%
    10:00 +22°C° 0.2 mm 5 mps 742 mmHg 78%
    11:00 +22°C° 0.2 mm 5 mps 743 mmHg 73%
    12:00 +23°C° 0 mm 5 mps 742 mmHg 68%
    13:00 +25°C° 0 mm 5 mps 742 mmHg 62%
    14:00 +26°C° 0 mm 5 mps 742 mmHg 56%
    15:00 +27°C° 0 mm 5 mps 741 mmHg 56%
    16:00 +28°C° 0 mm 5 mps 741 mmHg 56%
    17:00 +29°C° 0 mm 4 mps 740 mmHg 55%
    18:00 +28°C° 0 mm 4 mps 740 mmHg 61%
    19:00 +26°C° 0 mm 3 mps 741 mmHg 67%
    20:00 +25°C° 0 mm 2 mps 741 mmHg 72%
    21:00 +25°C° 0 mm 2 mps 741 mmHg 73%
    22:00 +25°C° 0 mm 2 mps 741 mmHg 73%
    23:00 +25°C° 0 mm 2 mps 742 mmHg 74%
    Show more